Tracking 18823 objects as of 24-October-2017
HD Live streaming from Space Station
objects crossing your sky now

CUBEBUG 2

Track CUBEBUG 2 now!
10-day predictions
CUBEBUG 2 is classified as:


NORAD ID: 39440
Int'l Code: 2013-066AA
Perigee: 594.8 km
Apogee: 706.3 km
Inclination: 97.6 °
Period: 97.6 minutes
Semi major axis: 7021 km
RCS: Unknown
Launch date: November 21, 2013
Source: (TBD)
Launch site: Orenburg, Russia (OREN)
Uplink (MHz):
Downlink (MHz): 437.445
Beacon (MHz):
Mode: 1k2AFSK 9k6FSK
Call sign: CUBEB2-6
Status: Active

aabbcc
Your satellite tracking list
Your tracking list is empty





NASA's NSSDC Master Catalog

Two Line Element Set (TLE):
1 39440U 13066AA  17296.95866247 +.00000339 +00000-0 +54585-4 0  9994
2 39440 097.6191 321.0578 0079392 242.0430 117.2728 14.75538785209884
Source of the keplerian elements: Caltech